Location: Unspecified
(0.0000°N, 0.0000°E)
Time: 21:26:50
(UTC+00:00)

Courier 1B Rocket - Visible Passes

Search period start: 22 May 2017 00:00
Search period end: 01 June 2017 00:00
Orbit: 921 x 1202 km, 28.2° (Epoch: 21 May)

Date Brightness Start Highest point End Pass type
(mag) Time Alt. Az. Time Alt. Az. Time Alt. Az.
23 May 6.8 19:38:34 10° SSW 19:40:56 16° S 19:40:56 16° S visible
24 May 6.8 18:39:14 10° S 18:41:52 12° SSE 18:44:14 11° SE visible
24 May 7.1 20:29:28 10° SW 20:30:38 15° SW 20:30:38 15° SW visible
25 May 6.1 19:29:07 10° SSW 19:34:04 28° SSE 19:34:04 28° SSE visible
26 May 6.4 18:29:09 10° SSW 18:33:32 19° SSE 18:37:37 11° ESE visible
26 May 6.2 20:20:35 10° SW 20:24:04 33° SW 20:24:04 33° SW visible
27 May 5.4 19:19:59 10° SW 19:26:10 43° SSE 19:27:47 37° ESE visible
27 May 7.4 21:13:06 10° WSW 21:14:14 16° WSW 21:14:14 16° WSW visible
28 May 7.8 04:58:37 10° N 05:02:01 13° NNE 05:05:23 10° NE visible
28 May 6.0 18:19:40 10° SSW 18:25:04 28° SSE 18:30:42 10° E visible
28 May 5.1 20:11:58 10° WSW 20:18:07 76° W 20:18:07 76° W visible
29 May 5.0 19:11:07 10° SW 19:17:32 67° SSE 19:22:08 22° ENE visible
29 May 6.8 21:05:06 10° W 21:08:36 27° WNW 21:08:36 27° WNW visible
30 May 7.7 04:48:28 10° NNW 04:53:45 19° NNE 04:58:55 10° ENE visible
30 May 5.4 18:10:32 10° SW 18:16:30 43° SSE 18:22:47 10° E visible
30 May 5.7 20:03:39 10° WSW 20:10:00 52° NNW 20:12:43 34° NNE visible
31 May 7.8 03:48:19 10° N 03:52:05 14° NNE 03:55:48 10° NE visible
31 May 5.1 19:02:31 10° WSW 19:08:55 79° NNW 19:15:44 10° NE visible
31 May 6.9 20:57:37 10° WNW 21:02:45 23° NNW 21:03:23 23° NNW visible
